When you browse on this site, cookies collect data to enhance your experience and personalize the content and advertising you see.
Visit our Privacy Policy to learn more. By continuing to use the site, you agree to this use of cookies and data.
  • In Latvia
  • List of Countries
  • For 7 days
  • Water Temperature
  • Weather Map
  • Weather Widgets
  • user-avatar
    Login

    Hourly Weather Gorodok

    Today, 24 August, Saturday

    Time Temperature Precipitation Wind Pressure Humidity
    00:00 +15°C° 0 mm 2 mps 751 mmHg 86%
    01:00 +15°C° 0 mm 2 mps 751 mmHg 86%
    02:00 +14°C° 0 mm 2 mps 751 mmHg 87%
    03:00 +14°C° 0 mm 1 mps 752 mmHg 84%
    04:00 +14°C° 0 mm 1 mps 752 mmHg 85%
    05:00 +13°C° 0 mm 1 mps 751 mmHg 86%
    06:00 +13°C° 0 mm 1 mps 751 mmHg 87%
    07:00 +15°C° 0 mm 1 mps 751 mmHg 81%
    08:00 +18°C° 0 mm 1 mps 751 mmHg 75%
    09:00 +18°C° 0 mm 0 mps 751 mmHg 68%
    10:00 +21°C° 0 mm 1 mps 751 mmHg 63%
    11:00 +22°C° 0 mm 1 mps 751 mmHg 58%
    12:00 +23°C° 0 mm 1 mps 751 mmHg 52%
    13:00 +24°C° 0 mm 1 mps 751 mmHg 51%
    14:00 +24°C° 0 mm 2 mps 750 mmHg 49%
    15:00 +24°C° 0 mm 2 mps 750 mmHg 47%
    16:00 +24°C° 0 mm 2 mps 750 mmHg 52%
    17:00 +23°C° 0 mm 2 mps 749 mmHg 57%
    18:00 +23°C° 0 mm 2 mps 749 mmHg 63%
    19:00 +20°C° 0 mm 2 mps 749 mmHg 66%
    20:00 +19°C° 0 mm 2 mps 749 mmHg 69%
    21:00 +17°C° 0 mm 2 mps 749 mmHg 73%
    22:00 +17°C° 0 mm 2 mps 749 mmHg 75%
    23:00 +16°C° 0 mm 2 mps 749 mmHg 77%

    Tomorrow, 25 August, Sunday

    Time Temperature Precipitation Wind Pressure Humidity
    00:00 +16°C° 0 mm 3 mps 749 mmHg 80%
    01:00 +14°C° 0 mm 3 mps 749 mmHg 83%
    02:00 +14°C° 0 mm 3 mps 749 mmHg 87%
    03:00 +14°C° 0 mm 3 mps 749 mmHg 90%
    04:00 +14°C° 0 mm 3 mps 749 mmHg 92%
    05:00 +13°C° 0 mm 3 mps 749 mmHg 93%
    06:00 +13°C° 0 mm 3 mps 749 mmHg 95%
    07:00 +14°C° 0 mm 3 mps 749 mmHg 87%
    08:00 +17°C° 0 mm 3 mps 749 mmHg 80%
    09:00 +18°C° 0 mm 4 mps 750 mmHg 73%
    10:00 +19°C° 0 mm 4 mps 750 mmHg 67%
    11:00 +20°C° 0 mm 4 mps 750 mmHg 62%
    12:00 +21°C° 0 mm 5 mps 750 mmHg 57%
    13:00 +21°C° 0 mm 5 mps 750 mmHg 57%
    14:00 +21°C° 0 mm 4 mps 750 mmHg 57%
    15:00 +22°C° 0 mm 4 mps 751 mmHg 56%
    16:00 +21°C° 0 mm 4 mps 751 mmHg 61%
    17:00 +20°C° 0 mm 3 mps 751 mmHg 65%
    18:00 +20°C° 0 mm 3 mps 751 mmHg 70%
    19:00 +19°C° 0 mm 2 mps 751 mmHg 73%
    20:00 +17°C° 0 mm 2 mps 751 mmHg 77%
    21:00 +16°C° 0 mm 2 mps 752 mmHg 81%
    22:00 +15°C° 0 mm 2 mps 752 mmHg 84%
    23:00 +14°C° 0 mm 2 mps 752 mmHg 86%

    Day after tomorrow, 26 August, Monday

    Time Temperature Precipitation Wind Pressure Humidity
    00:00 +14°C° 0 mm 2 mps 752 mmHg 89%
    01:00 +13°C° 0 mm 2 mps 753 mmHg 89%
    02:00 +13°C° 0 mm 2 mps 753 mmHg 90%
    03:00 +12°C° 0 mm 1 mps 753 mmHg 91%
    04:00 +12°C° 0 mm 1 mps 753 mmHg 92%
    05:00 +12°C° 0 mm 1 mps 753 mmHg 92%
    06:00 +12°C° 0 mm 1 mps 753 mmHg 93%
    07:00 +12°C° 0 mm 0 mps 753 mmHg 86%
    08:00 +14°C° 0 mm 0 mps 753 mmHg 79%
    09:00 +16°C° 0 mm 0 mps 753 mmHg 73%
    10:00 +17°C° 0 mm 0 mps 753 mmHg 67%
    11:00 +18°C° 0 mm 0 mps 753 mmHg 62%
    12:00 +20°C° 0 mm 0 mps 753 mmHg 56%
    13:00 +22°C° 0 mm 1 mps 753 mmHg 54%
    14:00 +22°C° 0 mm 1 mps 752 mmHg 51%
    15:00 +23°C° 0 mm 2 mps 752 mmHg 49%
    16:00 +22°C° 0 mm 1 mps 751 mmHg 52%
    17:00 +22°C° 0 mm 1 mps 751 mmHg 56%
    18:00 +22°C° 0 mm 1 mps 750 mmHg 59%
    19:00 +20°C° 0 mm 1 mps 750 mmHg 62%
    20:00 +19°C° 0 mm 1 mps 750 mmHg 66%
    21:00 +16°C° 0 mm 1 mps 750 mmHg 69%
    22:00 +16°C° 0 mm 2 mps 750 mmHg 71%
    23:00 +16°C° 0 mm 2 mps 750 mmHg 74%

    27 August, Tuesday

    Time Temperature Precipitation Wind Pressure Humidity
    00:00 +15°C° 0 mm 2 mps 749 mmHg 76%
    01:00 +14°C° 0 mm 3 mps 749 mmHg 78%
    02:00 +13°C° 0 mm 3 mps 748 mmHg 79%
    03:00 +13°C° 0 mm 3 mps 748 mmHg 81%
    04:00 +13°C° 0 mm 3 mps 748 mmHg 83%
    05:00 +13°C° 0 mm 3 mps 747 mmHg 84%
    06:00 +13°C° 0 mm 3 mps 747 mmHg 86%
    07:00 +14°C° 0 mm 4 mps 747 mmHg 82%
    08:00 +17°C° 0 mm 4 mps 746 mmHg 78%
    09:00 +17°C° 0 mm 5 mps 746 mmHg 73%
    10:00 +19°C° 0 mm 5 mps 746 mmHg 70%
    11:00 +21°C° 0 mm 6 mps 745 mmHg 68%
    12:00 +22°C° 0 mm 6 mps 745 mmHg 65%
    13:00 +22°C° 0.4 mm 6 mps 745 mmHg 65%
    14:00 +22°C° 0.4 mm 6 mps 744 mmHg 64%
    15:00 +22°C° 0.4 mm 7 mps 744 mmHg 64%
    16:00 +21°C° 0.2 mm 6 mps 743 mmHg 66%
    17:00 +21°C° 0.2 mm 5 mps 743 mmHg 68%
    18:00 +20°C° 0.2 mm 5 mps 743 mmHg 70%
    19:00 +17°C° 0 mm 5 mps 743 mmHg 71%
    20:00 +16°C° 0 mm 5 mps 743 mmHg 71%
    21:00 +14°C° 0 mm 5 mps 744 mmHg 72%
    22:00 +13°C° 0 mm 5 mps 744 mmHg 74%
    23:00 +12°C° 0 mm 5 mps 744 mmHg 76%

    28 August, Wednesday

    Time Temperature Precipitation Wind Pressure Humidity
    00:00 +10°C° 0 mm 5 mps 745 mmHg 77%
    01:00 +9°C° 0 mm 5 mps 745 mmHg 78%
    02:00 +8°C° 0 mm 5 mps 745 mmHg 78%
    03:00 +7°C° 0 mm 5 mps 745 mmHg 78%
    04:00 +6°C° 0 mm 4 mps 746 mmHg 77%
    05:00 +5°C° 0 mm 4 mps 746 mmHg 76%
    06:00 +5°C° 0 mm 4 mps 746 mmHg 75%
    07:00 +6°C° 0 mm 5 mps 747 mmHg 73%
    08:00 +7°C° 0 mm 5 mps 747 mmHg 70%
    09:00 +8°C° 0 mm 6 mps 747 mmHg 68%
    10:00 +8°C° 0 mm 6 mps 747 mmHg 64%
    11:00 +9°C° 0 mm 6 mps 747 mmHg 60%
    12:00 +10°C° 0 mm 6 mps 747 mmHg 57%
    13:00 +11°C° 0 mm 6 mps 747 mmHg 56%
    14:00 +11°C° 0 mm 6 mps 747 mmHg 55%
    15:00 +13°C° 0 mm 6 mps 747 mmHg 54%
    16:00 +13°C° 0 mm 5 mps 747 mmHg 57%
    17:00 +12°C° 0 mm 5 mps 747 mmHg 59%
    18:00 +12°C° 0 mm 4 mps 747 mmHg 61%
    19:00 +10°C° 0 mm 4 mps 747 mmHg 66%
    20:00 +9°C° 0 mm 3 mps 748 mmHg 70%
    21:00 +8°C° 0 mm 3 mps 748 mmHg 75%
    22:00 +7°C° 0 mm 2 mps 748 mmHg 77%
    23:00 +6°C° 0 mm 2 mps 748 mmHg 78%

    29 August, Thursday

    Time Temperature Precipitation Wind Pressure Humidity
    00:00 +6°C° 0 mm 2 mps 748 mmHg 80%
    01:00 +5°C° 0 mm 2 mps 748 mmHg 81%
    02:00 +5°C° 0 mm 2 mps 748 mmHg 81%
    03:00 +4°C° 0 mm 3 mps 748 mmHg 82%
    04:00 +4°C° 0 mm 3 mps 748 mmHg 84%
    05:00 +4°C° 0 mm 3 mps 748 mmHg 86%
    06:00 +3°C° 0 mm 3 mps 748 mmHg 88%
    07:00 +5°C° 0 mm 4 mps 748 mmHg 81%
    08:00 +7°C° 0 mm 4 mps 748 mmHg 74%
    09:00 +8°C° 0 mm 5 mps 748 mmHg 68%
    10:00 +9°C° 0 mm 5 mps 748 mmHg 66%
    11:00 +9°C° 0 mm 5 mps 748 mmHg 65%
    12:00 +9°C° 0 mm 5 mps 747 mmHg 64%
    13:00 +10°C° 0 mm 5 mps 747 mmHg 62%
    14:00 +12°C° 0 mm 5 mps 747 mmHg 60%
    15:00 +12°C° 0 mm 5 mps 747 mmHg 58%
    16:00 +12°C° 0 mm 5 mps 747 mmHg 59%
    17:00 +12°C° 0 mm 4 mps 747 mmHg 61%
    18:00 +12°C° 0 mm 4 mps 748 mmHg 63%
    19:00 +10°C° 0 mm 4 mps 748 mmHg 67%
    20:00 +9°C° 0 mm 3 mps 748 mmHg 72%
    21:00 +8°C° 0 mm 3 mps 748 mmHg 76%
    22:00 +7°C° 0 mm 3 mps 748 mmHg 78%
    23:00 +7°C° 0 mm 3 mps 748 mmHg 80%
    Show more